Naples, Italy

1:52 AM CEST on August 29, 2016 (GMT +0200)
Capodichino Mil

Weather History for LIRN - October, 2013

Change the Weather History Date:

Tuesday, October 15, 2013

  Actual Average Record
Temperature  
Mean Temperature 67 °F -  
Max Temperature 75 °F 67 °F 85 °F (2014)
Min Temperature 59 °F 50 °F 42 °F (2005)
Cooling Degree Days 2    
Growing Degree Days 17 (Base 50)    
Moisture  
Dew Point 61 °F    
Average Humidity 79    
Maximum Humidity 94    
Minimum Humidity 65    
Precipitation  
Precipitation 0.00 in 0.19 in - ()
Sea Level Pressure  
Sea Level Pressure 30.06 in    
Wind  
Wind Speed 2 mph ()    
Max Wind Speed 6 mph    
Max Gust Speed -    
Visibility 5.9 miles    
Events      
Averages and records for this station are not official NWS values.
T = Trace of Precipitation, MM = Missing Value Source: Averaged Metar Reports

Daily Weather History Graph

Daily Weather History Graph

Search for Another Location

Airport or City:

Trip Planner

Search our weather history database for the weather conditions in past years. The results will help you decide how hot, cold, wet, or windy it might be!

Date:

Astronomy

Oct. 15, 2013 Rise Set
Actual Time 7:14 AM CEST 6:22 PM CEST
Civil Twilight 6:46 AM CEST 6:50 PM CEST
Nautical Twilight 6:14 AM CEST 7:21 PM CEST
Astronomical Twilight 5:42 AM CEST 7:53 PM CEST
Moon 4:18 PM CEST (10/15) 3:16 AM CEST (10/15)
Length of Visible Light 12h 03m
Length of Day
11h 08m
Waxing Gibbous, 85% of the Moon is Illuminated
Oct 15
Waxing Gibbous
Oct 19
Full
Oct 27
Last Quarter
Nov 3
New
Nov 10
First Quarter

Hourly Weather History & Observations

Time (CEST) Temp. Dew Point Humidity Pressure Visibility Wind Dir Wind Speed Gust Speed Precip Events Conditions
12:20 AM 66.2 °F 60.8 °F 83% 30.09 in 6.2 mi NNE 1.2 mph - N/A   Scattered Clouds
12:50 AM 66.2 °F 60.8 °F 83% 30.09 in 6.2 mi North 2.3 mph - N/A   Scattered Clouds
1:20 AM 64.4 °F 59.0 °F 83% 30.09 in 6.2 mi NNW 2.3 mph - N/A   Scattered Clouds
1:50 AM 64.4 °F 59.0 °F 83% 30.09 in 6.2 mi Calm Calm - N/A   Partly Cloudy
2:20 AM 64.4 °F 60.8 °F 88% 30.09 in 6.2 mi Calm Calm - N/A   Partly Cloudy
2:50 AM 62.6 °F 59.0 °F 88% 30.09 in 6.2 mi Variable 1.2 mph - N/A   Partly Cloudy
3:20 AM 62.6 °F 59.0 °F 88% 30.09 in 6.2 mi Variable 1.2 mph - N/A   Partly Cloudy
3:50 AM 62.6 °F 59.0 °F 88% 30.09 in 6.2 mi NNE 2.3 mph - N/A   Partly Cloudy
4:20 AM 60.8 °F 57.2 °F 88% 30.09 in 6.2 mi NNW 2.3 mph - N/A   Partly Cloudy
4:50 AM 60.8 °F 57.2 °F 88% 30.09 in 6.2 mi Variable 1.2 mph - N/A   Partly Cloudy
5:20 AM 60.8 °F 57.2 °F 88% 30.09 in 6.2 mi NNW 1.2 mph - N/A   Partly Cloudy
5:50 AM 60.8 °F 59.0 °F 94% 30.09 in 6.2 mi Calm Calm - N/A   Partly Cloudy
6:20 AM 60.8 °F 57.2 °F 88% 30.09 in 6.2 mi Calm Calm - N/A   Partly Cloudy
6:50 AM 59.0 °F 55.4 °F 88% 30.09 in 6.2 mi NNW 2.3 mph - N/A   Partly Cloudy
7:20 AM 62.6 °F 57.2 °F 82% 30.09 in 6.2 mi Variable 1.2 mph - N/A   Partly Cloudy
7:50 AM 62.6 °F 57.2 °F 82% 30.09 in 6.2 mi Calm Calm - N/A   Partly Cloudy
8:20 AM 64.4 °F 59.0 °F 83% 30.09 in - NNE 3.5 mph - N/A   Clear
8:50 AM 64.4 °F 57.2 °F 77% 30.09 in - ENE 3.5 mph - N/A   Clear
9:20 AM 66.2 °F 59.0 °F 78% 30.09 in - Variable 2.3 mph - N/A   Clear
9:50 AM 69.8 °F 60.8 °F 73% 30.09 in - Calm Calm - N/A   Clear
10:20 AM 71.6 °F 60.8 °F 69% 30.09 in - Calm Calm - N/A   Clear
10:50 AM 73.4 °F 62.6 °F 69% 30.09 in - Variable 2.3 mph - N/A   Clear
11:20 AM 73.4 °F 62.6 °F 69% 30.09 in - South 4.6 mph - N/A   Clear
11:50 AM 75.2 °F 64.4 °F 69% 30.09 in - South 5.8 mph - N/A   Clear
12:20 PM 73.4 °F 64.4 °F 73% 30.09 in 6.2 mi South 5.8 mph - N/A   Partly Cloudy
12:50 PM 73.4 °F 62.6 °F 69% 30.09 in 6.2 mi Variable 5.8 mph - N/A   Partly Cloudy
1:20 PM 73.4 °F 64.4 °F 73% 30.06 in 6.2 mi SSW 5.8 mph - N/A   Scattered Clouds
1:50 PM 75.2 °F 62.6 °F 65% 30.06 in 6.2 mi SSW 5.8 mph - N/A   Partly Cloudy
2:20 PM 73.4 °F 64.4 °F 73% 30.06 in 6.2 mi SSW 5.8 mph - N/A   Partly Cloudy
2:50 PM 73.4 °F 64.4 °F 73% 30.04 in 6.2 mi South 5.8 mph - N/A   Partly Cloudy
3:20 PM 73.4 °F 64.4 °F 73% 30.04 in 6.2 mi South 4.6 mph - N/A   Partly Cloudy
3:50 PM 73.4 °F 64.4 °F 73% 30.04 in 6.2 mi South 5.8 mph - N/A   Scattered Clouds
4:20 PM 73.4 °F 64.4 °F 73% 30.04 in 6.2 mi South 5.8 mph - N/A   Scattered Clouds
4:50 PM 73.4 °F 64.4 °F 73% 30.01 in 6.2 mi South 5.8 mph - N/A   Scattered Clouds
5:20 PM 71.6 °F 64.4 °F 78% 30.01 in 6.2 mi South 4.6 mph - N/A   Scattered Clouds
5:50 PM 71.6 °F 64.4 °F 78% 30.01 in 6.2 mi SW 3.5 mph - N/A   Scattered Clouds
6:20 PM 71.6 °F 64.4 °F 78% 30.01 in 6.2 mi SW 3.5 mph - N/A   Scattered Clouds
6:50 PM 71.6 °F 64.4 °F 78% 30.01 in 5.0 mi South 3.5 mph - N/A   Scattered Clouds
7:20 PM 69.8 °F 66.2 °F 88% 30.01 in 5.0 mi Variable 2.3 mph - N/A   Mostly Cloudy
7:50 PM 69.8 °F 64.4 °F 83% 30.01 in 5.0 mi Variable 2.3 mph - N/A   Mostly Cloudy
8:20 PM 69.8 °F 64.4 °F 83% 30.01 in 5.0 mi Variable 2.3 mph - N/A   Mostly Cloudy
8:50 PM 69.8 °F 64.4 °F 83% 30.01 in 5.0 mi Variable 2.3 mph - N/A   Mostly Cloudy
9:20 PM 69.8 °F 64.4 °F 83% 30.01 in 5.0 mi South 2.3 mph - N/A   Mostly Cloudy
9:50 PM 69.8 °F 64.4 °F 83% 30.01 in 5.0 mi Variable 2.3 mph - N/A   Mostly Cloudy
10:20 PM 68.0 °F 59.0 °F 73% 30.01 in 5.0 mi Calm Calm - N/A   Mostly Cloudy
10:50 PM 68.0 °F 60.8 °F 78% 30.01 in 5.0 mi Variable 2.3 mph - N/A   Mostly Cloudy
11:20 PM 68.0 °F 60.8 °F 78% 29.98 in 6.2 mi Calm Calm - N/A   Scattered Clouds
11:50 PM 66.2 °F 60.8 °F 83% 29.98 in 6.2 mi Variable 1.2 mph - N/A   Partly Cloudy